ROMMA est une association bénévole à but non lucratif. Votre soutien est indispensable : ADHERER à ROMMA ou FAIRE un DON

Saint-Laurent-du-Pont - (38, Isère)

Chartreuse (410 m)   Longitude: 05° 43' 24" E   Latitude: 45° 23' 14" N Station partenaire n°156
 

Détail journalier du     <<     >>

Température Precipitation Humidité Pression Vent Dir Rafale Dir. rafale
Heure (°C) (mm) (%) (hPa) (km/h) (km/h)
01:00 12.409710213NE8NE
02:00 11.909610212NNE6NE
03:00 12.109510212NE5ENE
04:00 11.809510212NE6NE
05:00 11.509310212NE6E
06:00 11.709610212NNE8ENE
07:00 11.809610221ENE5SSE
08:00 11.709610222NE8ENE
09:00 12.309510221NNE5NE
10:00 13.309310222NNE5NE
11:00 15.608710222ENE6SSO
12:00 15.208610213NO10ONO
13:00 15.808610213N11NNE
14:00 14.808910215N11NNE
15:00 14.908910213N10NO
16:00 14.109110213N10NO
17:00 13.209310214N13N
18:00 12.709410212N10NNE
19:00 12.209510211NNO5NO
20:00 12.309510212N6N
21:00 12.109510211N6N
22:00 11.9095102203N
23:00 11.909510211NNE5NNE
minuit 11.8096102103NE

Graphique du 30-10-2019

 

Serveur OMMA